This demonstration page uses our WeatherBlox Daily Observations layout. Learn more.

Hourly Observations for April 18, 2019

Temp ( °F °C ) Dew Point ( °F °C ) Humidity (%) Winds ( mph kmh ) Pressure ( in mb ) Visibility ( mi km ) Precip ( " mm )
12:15 am 00:15 Clear 43 5.9 39 4 88 88 NNW 8 13 29.9 1013 10 16.0934 0 0
12:35 am 00:35 Clear 44 6.7 39 4 83 83 NNW 9 15 29.9 1013 10 16.0934 0 0
12:55 am 00:55 Clear 42 5.7 38 3.5 86 86 NNW 9 15 29.91 1013 10 16.0934 0 0
1:15 am 01:15 Clear 43 6.1 38 3.6 84 84 N 8 13 29.92 1013 10 16.0934 0 0
1:35 am 01:35 Clear 42 5.5 37 3 84 84 NNW 6 9 29.93 1014 10 16.0934 0 0
1:55 am 01:55 Clear 39 3.8 36 2.4 91 91 NW 7 11 29.96 1015 10 16.0934 0 0
2:15 am 02:15 Clear 38 3.1 36 2 93 93 NW 7 11 29.97 1015 10 16.0934 0 0
2:35 am 02:35 Clear 38 3.5 36 2.1 91 91 NW 7 11 29.97 1015 10 16.0934 0 0
2:55 am 02:55 Clear 38 3.5 36 2 90 90 WNW 6 9 29.98 1015 10 16.0934 0 0
3:15 am 03:15 Clear 38 3.6 35 1.8 88 88 WNW 7 11 29.98 1015 10 16.0934 0 0
3:35 am 03:35 Clear 39 3.7 35 1.7 87 87 WNW 6 9 29.99 1016 10 16.0934 0 0
3:55 am 03:55 Clear 38 3.5 35 1.7 88 88 WNW 5 7 29.99 1016 10 16.0934 0 0
4:15 am 04:15 Clear 38 3.5 35 1.8 89 89 WNW 6 9 29.99 1016 10 16.0934 0 0
4:35 am 04:35 Clear 37 3 34 1.3 89 89 WNW 3 6 30 1016 10 16.0934 0 0
4:55 am 04:55 Clear 37 3 35 1.5 90 90 WNW 5 7 30 1016 10 16.0934 0 0
5:15 am 05:15 Clear 38 3.5 36 2 90 90 WNW 6 9 29.98 1015 10 16.0934 0 0
5:35 am 05:35 Clear 40 4.4 37 2.7 89 89 WNW 8 13 29.96 1015 10 16.0934 0 0
5:55 am 05:55 Clear 40 4.5 37 2.7 88 88 WNW 8 13 29.96 1015 10 16.0934 0 0
6:15 am 06:15 Clear 40 4.4 37 2.7 89 89 WNW 8 13 29.96 1015 10 16.0934 0 0
6:35 am 06:35 Clear 39 4.1 37 2.5 89 89 NW 10 17 29.96 1014 10 16.0934 0 0
6:55 am 06:55 Sunny 39 3.8 36 2.2 89 89 NW 10 17 29.96 1015 10 16.0934 0 0
7:15 am 07:15 Sunny 41 5 37 2.5 84 84 NW 12 19 29.95 1014 10 16.0934 0 0
7:35 am 07:35 Partly Cloudy 41 5.2 36 2.3 82 82 NW 13 20 29.97 1015 10 16.0934 0 0
7:55 am 07:55 Sunny 42 5.7 37 2.5 80 80 NW 10 17 29.98 1015 10 16.0934 0 0
8:15 am 08:15 Sunny 44 6.7 37 2.8 76 76 NW 14 22 29.98 1015 10 16.0934 0 0
8:35 am 08:35 Sunny 46 7.5 38 3.1 74 74 NW 15 24 30 1016 10 16.0934 0 0
8:55 am 08:55 Sunny 47 8.3 38 3.6 73 73 NNW 14 22 29.99 1016 10 16.0934 0 0
9:15 am 09:15 Sunny 49 9.3 39 3.7 68 68 NNW 15 24 29.99 1016 10 16.0934 0 0
9:35 am 09:35 Sunny 51 10.5 39 4 64 64 NNW 16 26 29.98 1015 10 16.0934 0 0
9:55 am 09:55 Sunny 53 11.6 39 3.9 59 59 NNW 22 35 29.98 1015 10 16.0934 0 0
10:15 am 10:15 Sunny 54 12.2 38 3.6 56 56 NNW 17 28 29.96 1015 10 16.0934 0 0
10:35 am 10:35 Sunny 56 13.1 38 3.5 52 52 NNW 17 28 29.96 1014 10 16.0934 0 0
10:55 am 10:55 Sunny 57 13.7 39 3.7 51 51 NNW 21 33 29.96 1015 10 16.0934 0 0
11:15 am 11:15 Sunny 57 13.8 38 3.3 49 49 NNW 16 26 29.96 1015 10 16.0934 0 0
11:35 am 11:35 Partly Cloudy 58 14.5 37 2.7 45 45 NNW 20 31 29.95 1014 10 16.0934 0 0
11:55 am 11:55 Sunny 59 14.8 35 1.7 41 41 N 16 26 29.95 1014 10 16.0934 0 0
12:15 pm 12:15 Partly Cloudy 60 15.5 34 1.3 38 38 NNW 21 33 29.94 1014 10 16.0934 0 0
12:35 pm 12:35 Partly Cloudy 59 15.2 33 0.6 37 37 N 20 31 29.95 1014 10 16.0934 0 0
12:55 pm 12:55 Mostly Cloudy with Nearby Thunderstorms 60 15.7 34 1.3 38 38 NNW 22 35 29.93 1014 10 16.0934 0 0
1:15 pm 13:15 Cloudy with Light Rain 49 9.5 35 1.4 57 57 NW 13 20 30.02 1016 7 11.26538 0.01 0.254
1:35 pm 13:35 Partly Cloudy 52 11.2 43 5.9 70 70 N 13 20 29.98 1015 10 16.0934 0.01 0.254
1:55 pm 13:55 Sunny 57 14 42 5.6 57 57 NNW 14 22 29.94 1014 10 16.0934 0.01 0.254
2:15 pm 14:15 Sunny 61 15.9 32 0 34 34 N 24 39 29.92 1013 10 16.0934 0 0
2:35 pm 14:35 Partly Cloudy 60 15.7 31 -0.3 34 34 N 26 43 29.92 1013 10 16.0934 0 0
2:55 pm 14:55 Mostly Cloudy 61 16.1 32 -0.1 33 33 NNW 26 43 29.91 1013 10 16.0934 0 0
3:15 pm 15:15 Mostly Cloudy with Haze 56 13.3 32 0.1 41 41 NW 31 50 29.95 1014 4 6.43736 0 0
3:35 pm 15:35 Cloudy 55 12.8 29 -1.5 37 37 NW 17 28 29.94 1014 10 16.0934 0 0
3:55 pm 15:55 Partly Cloudy 59 15 32 0 36 36 NW 21 33 29.92 1013 10 16.0934 0 0
4:15 pm 16:15 Mostly Cloudy with Nearby Thunderstorms 56 13.3 35 1.4 45 45 N 36 57 29.97 1015 7 11.26538 0.01 0.254
4:35 pm 16:35 Cloudy with Rain 46 8 40 4.3 78 78 N 25 41 30.05 1018 7 11.26538 0.04 1.016
4:55 pm 16:55 Cloudy 48 9 40 4.6 74 74 NNW 13 20 29.99 1016 10 16.0934 0.05 1.27
5:15 pm 17:15 Mostly Cloudy 52 11 42 5.4 69 69 NNW 15 24 29.98 1015 10 16.0934 0 0
5:35 pm 17:35 Partly Cloudy 54 12.2 42 5.3 63 63 NNW 22 35 29.97 1015 10 16.0934 0 0
5:55 pm 17:55 Partly Cloudy 53 11.8 39 4 59 59 NNW 21 33 29.99 1015 10 16.0934 0 0
6:15 pm 18:15 Partly Cloudy 53 11.6 39 4 60 60 NNW 21 33 30 1016 10 16.0934 0 0
6:35 pm 18:35 Mostly Cloudy 50 10.2 36 2.2 58 58 N 21 33 30 1016 10 16.0934 0 0
6:55 pm 18:55 Partly Cloudy 51 10.8 37 2.9 58 58 NNW 12 19 30.01 1016 10 16.0934 0 0
7:15 pm 19:15 Sunny 52 11 38 3.2 59 59 NNW 9 15 30.01 1016 10 16.0934 0 0
7:35 pm 19:35 Partly Cloudy 52 10.9 38 3.3 60 60 NNW 9 15 30.01 1016 10 16.0934 0 0
7:55 pm 19:55 Partly Cloudy 50 10.2 37 2.7 60 60 NNW 12 19 30.03 1017 10 16.0934 0 0
8:15 pm 20:15 Mostly Cloudy 50 10.1 37 2.6 60 60 NW 22 35 30.05 1018 10 16.0934 0 0
8:35 pm 20:35 Mostly Cloudy 47 8.6 38 3.6 71 71 NNW 16 26 30.08 1018 10 16.0934 0 0
8:55 pm 20:55 Partly Cloudy 46 8 38 3.5 74 74 NNW 13 20 30.09 1019 10 16.0934 0 0
9:15 pm 21:15 Clear 46 7.6 38 3.5 76 76 N 14 22 30.1 1019 10 16.0934 0 0
9:35 pm 21:35 Clear 45 7.2 38 3.5 78 78 N 9 15 30.12 1020 10 16.0934 0 0
9:55 pm 21:55 Clear 44 6.6 38 3.5 81 81 N 9 15 30.13 1020 10 16.0934 0 0
10:15 pm 22:15 Clear 44 6.5 38 3.5 81 81 N 9 15 30.14 1021 10 16.0934 0 0
10:35 pm 22:35 Partly Cloudy 43 6.2 38 3.5 83 83 N 8 13 30.14 1021 10 16.0934 0 0
10:55 pm 22:55 Clear 41 5.1 37 3 86 86 N 8 13 30.16 1021 10 16.0934 0 0
11:15 pm 23:15 Clear 41 4.9 37 3 88 88 N 6 9 30.17 1022 10 16.0934 0 0
11:35 pm 23:35 Clear 40 4.3 37 2.9 91 91 NNW 9 15 30.17 1022 10 16.0934 0 0
11:55 pm 23:55 Clear 40 4.5 37 2.6 88 88 NNW 8 13 30.17 1022 10 16.0934 0 0

Powered by AerisWeather